Home   Weather   Toccoa   Past weeks

Flag for USA Past Weather in Toccoa, Georgia, USA — Yesterday and Last 2 Weeks

Now
66 °F

Light rain. Fog.


Feels Like: 66 °F
Forecast: 60 / 72 °F
Wind: No wind

Location: Clemson-Oconee County Airport

Current Time: Apr 27, 2017 at 3:01:13 pm

Latest Report: Apr 27, 2017 at 2:32 pm


Visibility: 1 mi

Pressure: 29.86 "Hg

Humidity: 90%

Dew Point: 63 °F

Location of ToccoaLocation

Past Weather in Toccoa — Graph

°F

Toccoa Temperature Yesterday

Maximum temperature yesterday: 82 °F (at 3:54 pm)
Minimum temperature yesterday: 59 °F (at 4:54 am)
Average temperature yesterday: 69 °F

High & Low Weather Summary for the Past Weeks

 TemperatureHumidityPressure
High87 °F (Apr 21, 3:54 pm)93% (Apr 20, 4:54 am)30.37 "Hg (Apr 20, 4:54 am)
Low52 °F (Apr 24, 12:54 am)30% (Apr 13, 6:54 pm)29.67 "Hg (Apr 25, 4:54 pm)
Average67 °F71%30.04 "Hg
* Reported Apr 12 1:54 pm — Apr 27 1:42 pm, Toccoa, Weather by CustomWeather, © 2017

Note: Actual official high and low records may vary slightly from our data, if they occured in-between our weather recording intervals... More about our weather records

Advertising

Toccoa Weather History for the Previous 24 Hours

Scroll right to see more
 ConditionsComfort  
Time TempWeatherWind HumidityBarometerVisibility
1:42 pm
Thu, Apr 27
66 °FLight rain. Fog.No wind87%29.86 "Hg2 mi
12:54 pm66 °FOvercast.3 mph84%29.84 "Hg6 mi
11:54 am65 °FOvercast.No wind85%29.85 "Hg7 mi
10:54 am64 °FFog.3 mph90%29.85 "Hg6 mi
10:05 am65 °FLight rain. Mostly cloudy.7 mph85%29.87 "Hg4 mi
8:54 am65 °FOvercast.5 mph78%29.86 "Hg10 mi
7:54 am64 °FBroken clouds.5 mph81%29.83 "Hg9 mi
6:54 am65 °FPassing clouds.No wind78%29.84 "Hg9 mi
5:54 am65 °FPassing clouds.3 mph76%29.80 "Hg10 mi
4:54 am65 °FOvercast.3 mph85%29.79 "Hg9 mi
3:54 am65 °FPassing clouds.No wind78%29.78 "Hg10 mi
2:54 am68 °FPassing clouds.3 mph70%29.82 "Hg10 mi
1:54 am68 °FPassing clouds.No wind70%29.82 "Hg10 mi
12:54 am70 °FPassing clouds.3 mph66%29.81 "Hg10 mi
11:54 pm
Wed, Apr 26
71 °FPassing clouds.No wind66%29.82 "Hg10 mi
10:54 pm71 °FOvercast.No wind66%29.82 "Hg10 mi
9:54 pm71 °FClear.No wind63%29.80 "Hg10 mi
8:54 pm73 °FClear.3 mph59%29.78 "Hg10 mi
7:54 pm77 °FSunny.No wind52%29.77 "Hg10 mi
6:54 pm80 °FSunny.6 mph44%29.77 "Hg10 mi
5:54 pm81 °FSunny.7 mph44%29.77 "Hg10 mi
4:54 pm81 °FSunny.7 mph42%29.78 "Hg10 mi
3:54 pm82 °FSunny.5 mph43%29.78 "Hg10 mi
Weather by CustomWeather, © 2017

See weather overviewHow to use our weather pages